EW9769 Lake Ronkonkoma NY US current weather conditions

sailwx.info

Wind from 187 at 1 knots gusting 9

Air temperature 12.8° C
Dewpoint 12.3° C

Last reported at 2019-Dec-09 17:55 UTC.
Time now 2019-Dec-09 18:26 UTC

Location: N 40°51' W 073°06'.
View on Google Maps.

See reports from other nearby stations

  
Tides and Currents Weather Stations Pressure Air Temp Water Temp Dewpoint Dewpoint Depression Visibility Wind Speed Wind Dir Waves Ship Positions
date/time (UTC)wind fromknots sea level pressurealtimeterstation pressurevisibilityair tempwater tempwave heightnotes
2019-Dec-09 18:05 221 2 gusting 7 12.8
2019-Dec-09 17:55 187 1 gusting 9 12.8
2019-Dec-09 17:50 212 3 gusting 9 12.8
2019-Dec-09 17:38 189 3 gusting 13 12.8
2019-Dec-09 17:30 243 3 gusting 13 12.8
2019-Dec-09 17:25 209 5 gusting 13 12.8
2019-Dec-09 17:20 200 4 gusting 13 12.8
2019-Dec-09 17:15 189 5 gusting 13 12.8
2019-Dec-09 17:10 265 2 gusting 15 12.8
2019-Dec-09 17:05 241 6 gusting 15 13.3
2019-Dec-09 16:55 167 6 gusting 13 13.3
2019-Dec-09 16:50 141 3 gusting 18 13.3
2019-Dec-09 16:40 252 6 gusting 19 13.3
2019-Dec-09 16:35 133 6 gusting 19 13.3
2019-Dec-09 16:30 131 3 gusting 13 12.8
2019-Dec-09 16:25 202 5 gusting 19 13.3
2019-Dec-09 16:20 123 4 gusting 13 12.8
2019-Dec-09 16:15 237 3 gusting 13 13.3
2019-Dec-09 16:10 083 5 gusting 12 13.3
2019-Dec-09 16:05 193 4 gusting 13 13.3
2019-Dec-09 15:56 187 4 gusting 15 13.3
2019-Dec-09 15:51 146 6 gusting 15 13.3
2019-Dec-09 15:46 146 2 gusting 13 13.3
2019-Dec-09 15:40 223 4 gusting 11 12.8
2019-Dec-09 15:35 120 4 gusting 14 12.8
2019-Dec-09 15:32 155 5 gusting 14 12.8
2019-Dec-09 15:25 186 3 gusting 10 12.8
2019-Dec-09 15:20 139 1 gusting 20 12.8
2019-Dec-09 15:17 238 6 gusting 20 12.8
2019-Dec-09 15:10 199 3 gusting 10 12.8
2019-Dec-09 15:05 110 5 gusting 12 12.8
2019-Dec-09 15:02 148 5 gusting 12 12.8
2019-Dec-09 14:55 144 2 gusting 7 12.8
2019-Dec-09 14:51 278 3 gusting 10 12.8
2019-Dec-09 14:47 098 3 gusting 11 12.8
2019-Dec-09 14:40 129 3 gusting 11 12.8
2019-Dec-09 14:35 148 3 gusting 14 12.8
2019-Dec-09 14:31 238 5 gusting 14 12.8
2019-Dec-09 14:25 122 3 gusting 12 12.8
2019-Dec-09 14:20 271 0 gusting 12 12.2
2019-Dec-09 14:17 129 1 gusting 7 12.2
2019-Dec-09 14:10 203 2 gusting 6 12.2
2019-Dec-09 14:05 157 2 gusting 6 12.2
2019-Dec-09 14:01 169 2 gusting 6 12.2
2019-Dec-09 13:55 167 1 gusting 8 12.2
2019-Dec-09 13:50 157 3 gusting 8 12.2
2019-Dec-09 13:46 184 3 gusting 8 11.7
2019-Dec-09 13:40 120 1 gusting 8 11.7
2019-Dec-09 13:35 110 2 gusting 7 11.7
2019-Dec-09 13:30 136 1 gusting 7 11.7
2019-Dec-09 13:25 082 1 gusting 6 11.1
2019-Dec-09 13:20 165 0 gusting 4 11.1
2019-Dec-09 13:15 123 1 gusting 5 11.1
2019-Dec-09 13:10 136 11.1
2019-Dec-09 13:05 136 2 gusting 8 11.1
2019-Dec-09 13:01 151 3 gusting 8 10.6
2019-Dec-09 12:55 158 0 gusting 5 10.0
2019-Dec-09 12:50 143 0 gusting 4 8.9
2019-Dec-09 12:45 215 7.2
2019-Dec-09 12:40 093 6.7
2019-Dec-09 12:35 093 6.1
2019-Dec-09 12:31 093 6.1
2019-Dec-09 12:25 093 6.1
2019-Dec-09 12:20 093 6.1
2019-Dec-09 12:16 093 6.1
2019-Dec-09 12:10 093 6.1
2019-Dec-09 12:05 093 6.1
2019-Dec-09 12:00 093 6.1
2019-Dec-09 11:55 093 6.1
2019-Dec-09 11:50 093 6.1
2019-Dec-09 11:40 093 6.1
2019-Dec-09 11:35 093 6.1
2019-Dec-09 11:25 093 6.1
2019-Dec-09 11:20 093 6.1
2019-Dec-09 11:10 093 5.6
2019-Dec-09 11:05 093 5.6
2019-Dec-09 10:55 093 5.6
2019-Dec-09 10:50 093 5.6
2019-Dec-09 10:40 093 5.6
2019-Dec-09 10:35 093 5.6
2019-Dec-09 10:25 093 5.6
2019-Dec-09 10:20 236 5.6
2019-Dec-09 10:15 236 5.6
2019-Dec-09 10:10 236 5.6
2019-Dec-09 10:05 236 5.6
2019-Dec-09 10:00 236 5.6
2019-Dec-09 09:55 236 6.1
2019-Dec-09 09:50 236 6.1
2019-Dec-09 09:45 236 6.1
2019-Dec-09 09:40 236 6.1
2019-Dec-09 09:35 236 6.1
2019-Dec-09 09:26 236 6.1
2019-Dec-09 09:20 236 6.1
2019-Dec-09 09:16 236 6.1
2019-Dec-09 09:10 236 6.1
2019-Dec-09 09:05 236 6.1
2019-Dec-09 09:02 236 6.1
2019-Dec-09 08:56 236 6.1
2019-Dec-09 08:50 236 6.1
2019-Dec-09 08:47 236 6.1
2019-Dec-09 08:40 236 6.1
2019-Dec-09 08:35 236 6.1
2019-Dec-09 08:32 236 6.1
2019-Dec-09 08:26 236 6.1
2019-Dec-09 08:21 236 6.1
2019-Dec-09 08:17 236 6.7
2019-Dec-09 08:10 236 6.7
2019-Dec-09 08:05 236 6.7
2019-Dec-09 08:01 236 6.7
2019-Dec-09 07:55 236 6.7
2019-Dec-09 07:50 236 6.7
2019-Dec-09 07:46 236 6.7
2019-Dec-09 07:40 236 6.7
2019-Dec-09 07:35 236 6.7
2019-Dec-09 07:31 236 6.7
2019-Dec-09 07:25 236 6.7
2019-Dec-09 07:20 236 7.2
2019-Dec-09 07:16 236 7.2
2019-Dec-09 07:10 236 7.2
2019-Dec-09 07:05 236 7.2
2019-Dec-09 07:01 236 7.2
2019-Dec-09 06:55 236 7.2
2019-Dec-09 06:50 230 7.2
2019-Dec-09 06:46 230 7.2
2019-Dec-09 06:40 230 7.2
2019-Dec-09 06:35 230 7.2
2019-Dec-09 06:31 230 7.2
2019-Dec-09 06:25 169 6.7
2019-Dec-09 06:20 241 6.1
2019-Dec-09 06:15 169 6.1
2019-Dec-09 06:10 169 6.1
2019-Dec-09 06:05 169 6.7
2019-Dec-09 06:01 169 6.7
2019-Dec-09 05:55 169 6.7
2019-Dec-09 05:50 169 6.7
2019-Dec-09 05:46 169 6.7
2019-Dec-09 05:40 172 6.7
2019-Dec-09 05:35 172 6.7
2019-Dec-09 05:30 131 6.7
2019-Dec-09 05:25 150 6.1
2019-Dec-09 05:20 204 6.1
2019-Dec-09 05:15 215 6.1
2019-Dec-09 05:10 223 6.1
2019-Dec-09 05:05 214 6.1
2019-Dec-09 05:00 270 5.6
2019-Dec-09 04:55 191 5.6
2019-Dec-09 04:45 146 5.0
2019-Dec-09 04:40 154 5.0
2019-Dec-09 04:35 245 5.0
2019-Dec-09 04:25 154 4.4
2019-Dec-09 04:20 154 4.4
2019-Dec-09 04:10 154 3.9
2019-Dec-09 04:05 154 4.4
2019-Dec-09 04:00 151 3.9
2019-Dec-09 03:55 124 3.9
2019-Dec-09 03:50 154 3.3
2019-Dec-09 03:45 154 3.3
2019-Dec-09 03:40 154 2.8
2019-Dec-09 03:31 154 2.8
2019-Dec-09 03:25 154 2.2
2019-Dec-09 03:20 155 2.2
2019-Dec-09 03:16 155 2.2
2019-Dec-09 03:11 155 2.2
2019-Dec-09 03:05 155 1.7
2019-Dec-09 03:03 155 1.7
2019-Dec-09 02:55 155 1.7
2019-Dec-09 02:50 155 1.7
2019-Dec-09 02:46 155 1.7
2019-Dec-09 02:40 155 1.7
2019-Dec-09 02:35 155 1.7
2019-Dec-09 02:31 155 1.7
2019-Dec-09 02:25 155 1.7
2019-Dec-09 02:20 155 1.7
2019-Dec-09 02:17 155 1.7
2019-Dec-09 02:10 155 2.2
2019-Dec-09 02:06 155 2.2
2019-Dec-09 02:01 155 2.2
2019-Dec-09 01:55 155 2.8
2019-Dec-09 01:51 155 2.8
2019-Dec-09 01:47 155 2.8
2019-Dec-09 01:41 155 2.8
2019-Dec-09 01:36 155 3.3
2019-Dec-09 01:31 155 3.3
2019-Dec-09 01:25 155 3.3
2019-Dec-09 01:21 155 3.3
2019-Dec-09 01:16 155 3.3
2019-Dec-09 01:10 200 3.3
2019-Dec-09 01:05 180 3.3
2019-Dec-09 01:01 166 3.3
2019-Dec-09 00:55 149 3.3
2019-Dec-09 00:50 193 2.8
2019-Dec-09 00:46 172 2.8
2019-Dec-09 00:40 124 2.8
2019-Dec-09 00:35 131 2.8
2019-Dec-09 00:31 206 2.8
2019-Dec-09 00:25 085 2.8
2019-Dec-09 00:20 124 2.2
2019-Dec-09 00:17 149 2.2
2019-Dec-09 00:10 157 2.2
2019-Dec-09 00:06 157 2.2
2019-Dec-09 00:02 120 1.7
2019-Dec-08 23:55 120 1.7
2019-Dec-08 23:50 125 1.7
2019-Dec-08 23:46 125 1.7
2019-Dec-08 23:40 125 1.7
2019-Dec-08 23:35 128 2.2
2019-Dec-08 23:31 128 2.2
2019-Dec-08 23:25 188 2.2
2019-Dec-08 23:20 188 2.2
2019-Dec-08 23:16 194 2.2
2019-Dec-08 23:10 149 2.2
2019-Dec-08 23:05 101 2.2
2019-Dec-08 23:01 255 2.2
2019-Dec-08 22:55 123 1.7
2019-Dec-08 22:50 149 1.7
2019-Dec-08 22:46 115 1.7
2019-Dec-08 22:40 155 1.7
2019-Dec-08 22:35 145 1.7
2019-Dec-08 22:31 098 1.1
2019-Dec-08 22:25 148 1.1
2019-Dec-08 22:20 148 1.1
2019-Dec-08 22:16 148 1.1
2019-Dec-08 22:10 148 1.7
2019-Dec-08 22:05 115 1.7
2019-Dec-08 22:01 115 1.7
2019-Dec-08 21:55 115 2.2
2019-Dec-08 21:50 115 2.2
2019-Dec-08 21:46 120 2.2
2019-Dec-08 21:40 150 2.2
2019-Dec-08 21:35 156 2.2
2019-Dec-08 21:31 231 2.8
2019-Dec-08 21:25 141 2.8
2019-Dec-08 21:20 151 2.8
2019-Dec-08 21:15 144 2.8
2019-Dec-08 21:10 128 2.8
2019-Dec-08 21:05 093 2.8
2019-Dec-08 21:00 166 2.8
2019-Dec-08 20:55 185 2.8
2019-Dec-08 20:50 207 0 gusting 3 3.3
2019-Dec-08 20:45 230 0 gusting 3 3.3
2019-Dec-08 20:40 129 0 gusting 5 3.3
2019-Dec-08 20:35 175 0 gusting 5 3.3
2019-Dec-08 20:30 126 3.3
2019-Dec-08 20:25 173 0 gusting 4 3.3
2019-Dec-08 20:20 218 0 gusting 4 3.3
2019-Dec-08 20:15 207 3.3
2019-Dec-08 20:10 247 0 gusting 4 3.3
2019-Dec-08 20:05 150 0 gusting 5 3.3
2019-Dec-08 20:00 131 0 gusting 5 3.3
2019-Dec-08 19:55 114 0 gusting 5 3.3
2019-Dec-08 19:50 182 1 gusting 6 3.3
2019-Dec-08 19:45 178 1 gusting 6 2.8
2019-Dec-08 19:40 251 1 gusting 6 2.8
2019-Dec-08 19:35 221 1 gusting 6 2.8
2019-Dec-08 19:30 160 2.8
2019-Dec-08 19:25 220 1 gusting 6 2.8
2019-Dec-08 19:20 186 2 gusting 6 2.8
2019-Dec-08 19:15 120 1 gusting 5 2.8
2019-Dec-08 19:10 214 1 gusting 5 2.8
2019-Dec-08 19:05 148 1 gusting 4 2.8
2019-Dec-08 19:00 133 0 gusting 6 2.8
2019-Dec-08 18:55 147 1 gusting 6 2.8
2019-Dec-08 18:50 118 1 gusting 6 2.8
2019-Dec-08 18:40 169 2.8
2019-Dec-08 18:35 250 0 gusting 6 2.8
2019-Dec-08 18:30 233 1 gusting 6 2.8
2019-Dec-08 18:25 129 1 gusting 5 2.8
2019-Dec-08 18:20 109 2.8
2019-Dec-08 18:15 214 0 gusting 5 2.2
2019-Dec-08 18:10 121 1 gusting 5 2.2
2019-Dec-08 18:05 131 1 gusting 5 2.2
2019-Dec-08 18:00 149 0 gusting 3 2.2
2019-Dec-08 17:55 139 2.2
2019-Dec-08 17:50 109 2 gusting 6 2.2
2019-Dec-08 17:40 143 1 gusting 6 2.2
2019-Dec-08 17:35 113 1 gusting 6 2.2
2019-Dec-08 17:30 215 1 gusting 6 2.2
2019-Dec-08 17:25 122 0 gusting 6 2.2
2019-Dec-08 17:20 136 1 gusting 6 2.2
2019-Dec-08 17:15 226 0 gusting 5 2.2
2019-Dec-08 17:10 248 0 gusting 5 2.2
2019-Dec-08 17:05 259 1 gusting 6 2.2
2019-Dec-08 17:00 203 2 gusting 6 2.2
2019-Dec-08 16:55 108 1 gusting 4 2.2
2019-Dec-08 16:50 212 0 gusting 4 1.7
2019-Dec-08 16:40 165 1.7
2019-Dec-08 16:35 206 0 gusting 5 1.7
2019-Dec-08 16:30 262 0 gusting 4 1.7
2019-Dec-08 16:25 104 0 gusting 4 1.7
2019-Dec-08 16:20 194 1.7
2019-Dec-08 16:15 217 0 gusting 5 1.7
2019-Dec-08 16:10 189 1.7
2019-Dec-08 16:05 126 0 gusting 4 1.7
2019-Dec-08 16:00 149 0 gusting 3 1.7
2019-Dec-08 15:55 183 1.7
2019-Dec-08 15:46 104 1.7
2019-Dec-08 15:41 113 1.7
2019-Dec-08 15:36 140 0 gusting 4 1.7
2019-Dec-08 15:31 248 1.7
2019-Dec-08 15:25 082 1.7
2019-Dec-08 15:20 133 1.7
2019-Dec-08 15:16 149 1.7
2019-Dec-08 15:10 123 1.1
2019-Dec-08 15:05 204 1.1
2019-Dec-08 15:02 210 1.1
2019-Dec-08 14:56 139 1.1
2019-Dec-08 14:51 103 0.6
2019-Dec-08 14:46 127 0.6
2019-Dec-08 14:40 326 0.6
2019-Dec-08 14:35 136 0.6
2019-Dec-08 14:31 136 0.6
2019-Dec-08 14:25 136 0.6
2019-Dec-08 14:21 136 -0.0
2019-Dec-08 14:16 127 -0.0
2019-Dec-08 14:10 165 0.6
2019-Dec-08 14:06 165 -0.0
2019-Dec-08 14:01 236 -0.0
2019-Dec-08 13:55 236 -0.6
2019-Dec-08 13:50 236 -1.1
2019-Dec-08 13:46 236 -1.7
2019-Dec-08 13:40 236 -2.8
2019-Dec-08 13:35 236 -3.9
2019-Dec-08 13:31 236 -5.0
2019-Dec-08 13:25 236 -5.6
2019-Dec-08 13:20 236 -6.1
2019-Dec-08 13:15 236 -6.7
2019-Dec-08 13:10 236 -7.2
2019-Dec-08 13:05 236 -7.8
2019-Dec-08 13:01 236 -7.8
2019-Dec-08 12:55 236 -7.8
2019-Dec-08 12:50 236 -8.3
2019-Dec-08 12:46 236 -8.3
2019-Dec-08 12:40 236 -8.3
2019-Dec-08 12:35 236 -8.9
2019-Dec-08 12:31 236 -8.9
2019-Dec-08 12:25 236 -8.9
2019-Dec-08 12:20 236 -8.9
2019-Dec-08 12:15 236 -8.9
2019-Dec-08 12:10 236 -8.9
2019-Dec-08 12:05 236 -8.9
2019-Dec-08 12:00 236 -8.9
2019-Dec-08 11:55 236 -8.9
2019-Dec-08 11:50 236 -8.3
2019-Dec-08 11:45 236 -8.3
2019-Dec-08 11:40 236 -8.3
2019-Dec-08 11:35 236 -8.3
2019-Dec-08 11:30 236 -8.3
2019-Dec-08 11:25 236 -8.3
2019-Dec-08 11:20 236 -8.3
2019-Dec-08 11:15 236 -8.3
2019-Dec-08 11:10 236 -7.8
2019-Dec-08 11:05 236 -7.8
2019-Dec-08 11:01 236 -7.8
2019-Dec-08 10:55 236 -7.8
2019-Dec-08 10:50 236 -7.2
2019-Dec-08 10:45 236 -7.2
2019-Dec-08 10:40 236 -7.2
2019-Dec-08 10:35 236 -7.8
2019-Dec-08 10:31 318 -8.3
2019-Dec-08 10:25 318 -8.3
2019-Dec-08 10:20 318 -8.3
2019-Dec-08 10:15 318 -8.3
2019-Dec-08 10:10 318 -8.3
2019-Dec-08 10:05 318 -7.8
2019-Dec-08 10:00 318 -7.8
2019-Dec-08 09:55 318 -7.8
2019-Dec-08 09:50 318 -7.8
2019-Dec-08 09:40 318 -7.8
2019-Dec-08 09:35 318 -7.8
2019-Dec-08 09:25 318 -7.8
2019-Dec-08 09:15 318 -7.8
2019-Dec-08 09:10 318 -7.8
2019-Dec-08 09:05 318 -7.8
2019-Dec-08 08:55 318 -7.2
2019-Dec-08 08:50 318 -7.2
2019-Dec-08 08:40 318 -7.2
2019-Dec-08 08:35 318 -7.2
2019-Dec-08 08:25 318 -7.2
2019-Dec-08 08:20 318 -6.7
2019-Dec-08 08:10 318 -6.7
2019-Dec-08 08:05 318 -6.7
2019-Dec-08 08:00 318 -6.1
2019-Dec-08 07:55 318 -6.1
2019-Dec-08 07:50 318 -6.1
2019-Dec-08 07:45 318 -6.1
2019-Dec-08 07:40 318 -6.1
2019-Dec-08 07:31 318 -6.1
2019-Dec-08 07:25 318 -6.1
2019-Dec-08 07:21 318 -6.1
2019-Dec-08 07:17 318 -6.1
2019-Dec-08 07:10 318 -6.1
2019-Dec-08 07:06 318 -6.1
2019-Dec-08 07:02 318 -6.1
2019-Dec-08 06:55 318 -6.1
2019-Dec-08 06:50 318 -6.1
2019-Dec-08 06:47 318 -6.1
2019-Dec-08 06:40 318 -6.1
2019-Dec-08 06:35 318 -5.6
2019-Dec-08 06:31 318 -5.6
2019-Dec-08 06:25 318 -5.6
2019-Dec-08 06:20 318 -5.6
2019-Dec-08 06:16 318 -5.6
2019-Dec-08 06:10 318 -5.6
2019-Dec-08 06:05 318 -5.0
2019-Dec-08 06:01 318 -5.0
2019-Dec-08 05:55 318 -5.0
2019-Dec-08 05:50 318 -5.0
2019-Dec-08 05:46 318 -5.0
2019-Dec-08 05:40 318 -5.0
2019-Dec-08 05:35 318 -5.0
2019-Dec-08 05:31 318 -5.0
2019-Dec-08 05:26 318 -4.4
2019-Dec-08 05:20 318 -4.4
2019-Dec-08 05:16 318 -4.4
2019-Dec-08 05:10 318 -3.9
2019-Dec-08 05:05 318 -3.9
2019-Dec-08 05:00 318 -3.9
2019-Dec-08 04:55 318 -3.9
2019-Dec-08 04:50 318 -3.9
2019-Dec-08 04:45 318 -3.9
2019-Dec-08 04:40 318 -3.9
2019-Dec-08 04:35 318 -3.9
2019-Dec-08 04:31 318 -3.9
2019-Dec-08 04:25 318 -3.9
2019-Dec-08 04:20 318 -3.9
2019-Dec-08 04:15 338 -3.9
2019-Dec-08 04:10 338 -3.9
2019-Dec-08 04:05 338 -3.9
2019-Dec-08 04:01 338 -3.9
2019-Dec-08 03:55 338 -3.9
2019-Dec-08 03:50 338 -3.3
2019-Dec-08 03:45 338 -3.3
2019-Dec-08 03:40 338 -3.3
2019-Dec-08 03:35 338 -2.8
2019-Dec-08 03:30 338 -2.8
2019-Dec-08 03:25 338 -2.2
2019-Dec-08 03:20 338 -2.2
2019-Dec-08 03:16 338 -2.2
2019-Dec-08 03:10 338 -2.2
2019-Dec-08 03:05 338 -2.2
2019-Dec-08 02:55 338 -2.2
2019-Dec-08 02:50 344 -2.2
2019-Dec-08 02:40 344 -2.2
2019-Dec-08 02:35 344 -2.2
2019-Dec-08 02:25 344 -1.7
2019-Dec-08 02:20 344 -1.7
2019-Dec-08 02:10 342 -1.1
2019-Dec-08 02:05 342 -1.1
2019-Dec-08 02:00 006 -1.1
2019-Dec-08 01:55 006 -1.1
2019-Dec-08 01:50 006 -0.6
2019-Dec-08 01:45 276 -0.6
2019-Dec-08 01:40 347 -0.6
2019-Dec-08 01:35 360 -0.6
2019-Dec-08 01:25 294 -0.0
2019-Dec-08 01:20 344 -0.0
2019-Dec-08 01:15 346 -0.0
2019-Dec-08 01:10 331 -0.0
2019-Dec-08 01:05 304 -0.0
2019-Dec-08 01:00 353 -0.0
2019-Dec-08 00:55 219 -0.0
2019-Dec-08 00:47 219 -0.0
2019-Dec-08 00:40 295 -0.0
2019-Dec-08 00:35 330 -0.0
2019-Dec-08 00:32 338 -0.0
2019-Dec-08 00:25 290 -0.0
2019-Dec-08 00:20 326 -0.0
2019-Dec-08 00:17 020 -0.6
2019-Dec-08 00:10 056 -0.6
2019-Dec-08 00:06 134 -0.6
2019-Dec-08 00:01 134 -0.6
2019-Dec-07 23:55 139 -0.6
2019-Dec-07 23:51 345 -0.6
2019-Dec-07 23:46 221 -0.6
2019-Dec-07 23:40 221 -0.6
2019-Dec-07 23:36 231 -0.6
2019-Dec-07 23:32 231 -0.0
2019-Dec-07 23:26 231 -0.0
2019-Dec-07 23:21 184 -0.0
2019-Dec-07 23:16 184 -0.0
2019-Dec-07 23:11 241 -0.0
2019-Dec-07 23:05 177 -0.0
2019-Dec-07 23:01 229 -0.0
2019-Dec-07 22:55 207 -0.6
2019-Dec-07 22:51 248 -0.6
2019-Dec-07 22:47 057 -1.1
2019-Dec-07 22:41 358 -1.7
2019-Dec-07 22:36 357 -1.7
2019-Dec-07 22:31 358 -1.7
2019-Dec-07 22:25 358 -1.1
2019-Dec-07 22:20 358 -1.1
2019-Dec-07 22:16 358 -1.1
2019-Dec-07 22:10 358 -1.1
2019-Dec-07 22:05 358 -0.6
2019-Dec-07 22:02 358 -0.6
2019-Dec-07 21:55 358 -0.6
2019-Dec-07 21:50 358 -0.0
2019-Dec-07 21:46 358 -0.0
2019-Dec-07 21:40 357 0.6
2019-Dec-07 21:36 358 0.6
2019-Dec-07 21:31 358 1.1
2019-Dec-07 21:25 357 1.1
2019-Dec-07 21:20 349 1.1
2019-Dec-07 21:16 340 1.1
2019-Dec-07 21:11 340 1.7
2019-Dec-07 21:05 340 1.7
2019-Dec-07 21:01 325 1.7
2019-Dec-07 20:56 009 2.2
2019-Dec-07 20:50 012 0 gusting 4 2.2
2019-Dec-07 20:45 013 2.2
2019-Dec-07 20:40 274 2.2
2019-Dec-07 20:35 055 2.8
2019-Dec-07 20:31 298 2.8
2019-Dec-07 20:25 295 2.8
2019-Dec-07 20:20 288 2.8
2019-Dec-07 20:16 226 3.3
2019-Dec-07 20:10 311 0 gusting 6 3.3
2019-Dec-07 20:05 233 3.3
2019-Dec-07 20:01 300 3.9
2019-Dec-07 19:55 131 3.9
2019-Dec-07 19:50 027 3.3
2019-Dec-07 19:45 292 3.9
2019-Dec-07 19:40 356 3.3
2019-Dec-07 19:35 303 3.3
2019-Dec-07 19:31 300 3.3
2019-Dec-07 19:25 333 0 gusting 3 2.8
2019-Dec-07 19:20 302 0 gusting 3 2.8
2019-Dec-07 19:15 297 2.8
2019-Dec-07 19:10 336 2.8
2019-Dec-07 19:05 025 2.8
2019-Dec-07 19:00 004 2.8
2019-Dec-07 18:55 266 3.3
2019-Dec-07 18:50 339 3.3
2019-Dec-07 18:46 113 3.3
2019-Dec-07 18:40 288 0 gusting 4 3.3
2019-Dec-07 18:35 008 3.3
2019-Dec-07 18:31 308 3.3
2019-Dec-07 18:25 316 3.9
2019-Dec-07 18:20 240 4.4
2019-Dec-07 18:16 261 3.9
2019-Dec-07 18:10 321 3.9
2019-Dec-07 18:05 023 0 gusting 3 3.9
2019-Dec-07 18:00 284 3.9